DAL1553 KSLC-KDEN

Flight info

Callsign DAL1553
Flight time 1h 2m
Altitude 35000
Route ZIONZ1 KIMMR JNETT SSKII4
Aircraft A321/M-SDE3FGHIRWY/LB1

Departure

Time 2026-05-05 05:44
Airport Salt Lake City International Airport (KSLC)

Arrival

Time 2026-05-05 06:47
Airport Denver International Airport (KDEN)
Time Latitude Longitude Altitude Speed Heading
2026-05-05 05:03 40.78543 -111.98020 4231 ft 0 kts 356°
2026-05-05 05:29 40.78534 -111.98019 4231 ft 4 kts
2026-05-05 05:30 40.78510 -111.98029 4231 ft 4 kts 39°
2026-05-05 05:30 40.78493 -111.98055 4231 ft 4 kts 67°
2026-05-05 05:30 40.78488 -111.98078 4231 ft 0 kts 87°
2026-05-05 05:37 40.78488 -111.98073 4231 ft 3 kts 87°
2026-05-05 05:37 40.78490 -111.98024 4231 ft 5 kts 85°
2026-05-05 05:38 40.78496 -111.97943 4231 ft 12 kts 85°
2026-05-05 05:38 40.78504 -111.97841 4231 ft 10 kts 79°
2026-05-05 05:38 40.78530 -111.97766 4231 ft 10 kts 30°
2026-05-05 05:38 40.78634 -111.97766 4231 ft 16 kts 355°
2026-05-05 05:39 40.78751 -111.97779 4231 ft 21 kts 355°
2026-05-05 05:39 40.78907 -111.97797 4231 ft 22 kts 355°
2026-05-05 05:39 40.79048 -111.97813 4231 ft 19 kts 355°
2026-05-05 05:39 40.79170 -111.97828 4231 ft 17 kts 355°
2026-05-05 05:40 40.79314 -111.97844 4231 ft 28 kts 355°
2026-05-05 05:40 40.79504 -111.97865 4230 ft 26 kts 355°
2026-05-05 05:40 40.79675 -111.97880 4231 ft 22 kts 348°
2026-05-05 05:40 40.79813 -111.97902 4231 ft 19 kts 355°
2026-05-05 05:41 40.79934 -111.97915 4231 ft 16 kts 355°
2026-05-05 05:41 40.80038 -111.97926 4231 ft 14 kts 355°
2026-05-05 05:41 40.80129 -111.97938 4231 ft 12 kts 355°
2026-05-05 05:41 40.80213 -111.97948 4231 ft 16 kts 355°
2026-05-05 05:42 40.80353 -111.97986 4231 ft 21 kts 347°
2026-05-05 05:42 40.80489 -111.98006 4231 ft 18 kts 355°
2026-05-05 05:42 40.80617 -111.98038 4231 ft 18 kts 343°
2026-05-05 05:42 40.80723 -111.98027 4231 ft 14 kts 51°
2026-05-05 05:43 40.80739 -111.97907 4231 ft 12 kts 85°
2026-05-05 05:43 40.80743 -111.97787 4229 ft 14 kts 99°
2026-05-05 05:43 40.80692 -111.97695 4229 ft 12 kts 156°
2026-05-05 05:43 40.80601 -111.97681 4230 ft 21 kts 175°
2026-05-05 05:44 40.80242 -111.97639 4233 ft 84 kts 174°
2026-05-05 05:44 40.79451 -111.97543 4230 ft 141 kts 175°
2026-05-05 05:44 40.78339 -111.97399 4441 ft 170 kts 174°
2026-05-05 05:44 40.77145 -111.97380 5143 ft 176 kts 193°
2026-05-05 05:45 40.76144 -111.98296 5904 ft 183 kts 233°
2026-05-05 05:45 40.75743 -111.99965 6207 ft 203 kts 270°
2026-05-05 05:45 40.76188 -112.01771 6376 ft 216 kts 299°
2026-05-05 05:45 40.77065 -112.03439 6488 ft 227 kts 305°
2026-05-05 05:46 40.78040 -112.05146 6616 ft 239 kts 306°
2026-05-05 05:46 40.79073 -112.06932 6752 ft 251 kts 306°
2026-05-05 05:46 40.80183 -112.08822 6833 ft 271 kts 306°
2026-05-05 05:46 40.81377 -112.10864 7021 ft 288 kts 306°
2026-05-05 05:47 40.82594 -112.12973 7568 ft 289 kts 306°
2026-05-05 05:47 40.83829 -112.15088 8215 ft 292 kts 305°
2026-05-05 05:47 40.85084 -112.17207 8879 ft 294 kts 306°
2026-05-05 05:47 40.86479 -112.19190 9519 ft 298 kts 321°
2026-05-05 05:48 40.88332 -112.20414 10142 ft 302 kts 345°
2026-05-05 05:48 40.90439 -112.20581 10643 ft 311 kts
2026-05-05 05:48 40.92502 -112.19527 10752 ft 331 kts 36°
2026-05-05 05:48 40.94191 -112.17350 10903 ft 348 kts 48°
2026-05-05 05:49 40.95823 -112.14926 11309 ft 357 kts 48°
2026-05-05 05:49 40.97480 -112.12469 11932 ft 359 kts 48°
2026-05-05 05:49 40.99170 -112.09972 12573 ft 361 kts 48°
2026-05-05 05:49 41.00823 -112.07533 13234 ft 362 kts 47°
2026-05-05 05:50 41.02535 -112.05013 13871 ft 363 kts 47°
2026-05-05 05:50 41.04197 -112.02480 14439 ft 366 kts 52°
2026-05-05 05:50 41.05556 -111.99621 14973 ft 368 kts 63°
2026-05-05 05:50 41.06652 -111.96537 15486 ft 371 kts 65°
2026-05-05 05:51 41.07739 -111.93432 16021 ft 373 kts 65°
2026-05-05 05:51 41.08835 -111.90292 16529 ft 376 kts 65°
2026-05-05 05:51 41.09935 -111.87140 17053 ft 378 kts 65°
2026-05-05 05:51 41.10959 -111.83921 17519 ft 381 kts 73°
2026-05-05 05:52 41.11370 -111.80446 17999 ft 384 kts 90°
2026-05-05 05:52 41.11012 -111.76934 18399 ft 387 kts 107°
2026-05-05 05:52 41.09901 -111.73679 18778 ft 390 kts 123°
2026-05-05 05:52 41.08132 -111.70960 19159 ft 392 kts 139°
2026-05-05 05:53 41.06012 -111.68672 19555 ft 394 kts 141°
2026-05-05 05:53 41.03867 -111.66394 19973 ft 396 kts 141°
2026-05-05 05:53 41.01706 -111.64107 20387 ft 398 kts 142°
2026-05-05 05:53 40.99541 -111.61815 20796 ft 400 kts 141°
2026-05-05 05:54 40.97361 -111.59503 21175 ft 403 kts 142°
2026-05-05 05:54 40.95169 -111.57179 21577 ft 405 kts 142°
2026-05-05 05:54 40.92966 -111.54845 21966 ft 407 kts 142°
2026-05-05 05:54 40.90750 -111.52496 22388 ft 409 kts 142°
2026-05-05 05:55 40.88523 -111.50137 22778 ft 412 kts 142°
2026-05-05 05:55 40.86282 -111.47767 23168 ft 414 kts 142°
2026-05-05 05:55 40.84026 -111.45385 23507 ft 416 kts 142°
2026-05-05 05:55 40.81851 -111.42855 23826 ft 419 kts 135°
2026-05-05 05:56 40.80022 -111.39839 24130 ft 423 kts 124°
2026-05-05 05:56 40.78628 -111.36403 24441 ft 428 kts 114°
2026-05-05 05:56 40.77681 -111.32667 24757 ft 431 kts 108°
2026-05-05 05:56 40.77105 -111.30092 24961 ft 433 kts 108°
2026-05-05 05:57 40.75967 -111.25034 25370 ft 436 kts 108°
2026-05-05 05:57 40.75378 -111.22442 25565 ft 437 kts 108°
2026-05-05 05:57 40.74502 -111.18593 25835 ft 440 kts 108°
2026-05-05 05:57 40.73622 -111.14718 26126 ft 442 kts 108°
2026-05-05 05:58 40.72737 -111.10829 26400 ft 445 kts 108°
2026-05-05 05:58 40.71841 -111.06908 26651 ft 448 kts 109°
2026-05-05 05:58 40.70939 -111.02977 26941 ft 450 kts 109°
2026-05-05 05:58 40.70032 -110.99022 27235 ft 452 kts 109°
2026-05-05 05:59 40.69122 -110.95054 27502 ft 454 kts 109°
2026-05-05 05:59 40.68204 -110.91054 27758 ft 456 kts 109°
2026-05-05 05:59 40.67284 -110.87054 28016 ft 458 kts 109°
2026-05-05 05:59 40.66355 -110.83025 28267 ft 460 kts 109°
2026-05-05 06:00 40.65422 -110.78988 28491 ft 463 kts 109°
2026-05-05 06:00 40.64475 -110.74915 28687 ft 466 kts 109°
2026-05-05 06:00 40.63525 -110.70828 28931 ft 468 kts 109°
2026-05-05 06:00 40.62571 -110.66724 29145 ft 470 kts 109°
2026-05-05 06:01 40.61616 -110.62598 29375 ft 472 kts 109°
2026-05-05 06:01 40.60653 -110.58456 29588 ft 474 kts 109°
2026-05-05 06:01 40.59681 -110.54297 29840 ft 476 kts 109°
2026-05-05 06:01 40.58705 -110.50129 30069 ft 477 kts 110°
2026-05-05 06:02 40.57713 -110.45905 30312 ft 478 kts 110°
2026-05-05 06:02 40.56727 -110.41720 30440 ft 482 kts 110°
2026-05-05 06:02 40.55742 -110.37558 30637 ft 482 kts 110°
2026-05-05 06:02 40.54731 -110.33299 30933 ft 481 kts 110°
2026-05-05 06:03 40.53740 -110.29106 31178 ft 482 kts 110°
2026-05-05 06:03 40.52809 -110.24874 31389 ft 484 kts 108°
2026-05-05 06:03 40.51971 -110.20569 31608 ft 486 kts 106°
2026-05-05 06:03 40.51199 -110.16242 31811 ft 487 kts 105°
2026-05-05 06:04 40.50446 -110.11892 32018 ft 489 kts 105°
2026-05-05 06:04 40.49682 -110.07537 32138 ft 492 kts 106°
2026-05-05 06:04 40.48886 -110.03145 32275 ft 494 kts 107°
2026-05-05 06:04 40.48066 -109.98761 32486 ft 495 kts 107°
2026-05-05 06:05 40.47229 -109.94377 32697 ft 496 kts 107°
2026-05-05 06:05 40.46377 -109.89980 32920 ft 496 kts 107°
2026-05-05 06:05 40.45522 -109.85590 33106 ft 497 kts 108°
2026-05-05 06:05 40.44668 -109.81198 33383 ft 497 kts 108°
2026-05-05 06:06 40.43816 -109.76798 33581 ft 498 kts 108°
2026-05-05 06:06 40.42967 -109.72382 33725 ft 500 kts 108°
2026-05-05 06:06 40.42118 -109.67947 34002 ft 501 kts 108°
2026-05-05 06:06 40.41268 -109.63509 34204 ft 502 kts 108°
2026-05-05 06:07 40.40411 -109.59064 34401 ft 502 kts 108°
2026-05-05 06:07 40.39550 -109.54627 34597 ft 502 kts 108°
2026-05-05 06:07 40.38684 -109.50188 34776 ft 502 kts 108°
2026-05-05 06:07 40.37815 -109.45746 34876 ft 502 kts 108°
2026-05-05 06:08 40.36073 -109.36886 34891 ft 501 kts 108°
2026-05-05 06:08 40.34333 -109.28038 34855 ft 501 kts 109°
2026-05-05 06:09 40.32585 -109.19162 34825 ft 503 kts 109°
2026-05-05 06:09 40.30829 -109.10282 34782 ft 504 kts 109°
2026-05-05 06:10 40.29051 -109.01370 34787 ft 507 kts 109°
2026-05-05 06:10 40.27261 -108.92427 34790 ft 508 kts 109°
2026-05-05 06:11 40.25461 -108.83427 34792 ft 508 kts 109°
2026-05-05 06:11 40.23660 -108.74487 34784 ft 508 kts 109°
2026-05-05 06:12 40.21849 -108.65556 34755 ft 509 kts 110°
2026-05-05 06:12 40.20014 -108.56585 34757 ft 511 kts 110°
2026-05-05 06:13 40.18174 -108.47590 34768 ft 512 kts 110°
2026-05-05 06:13 40.16332 -108.38592 34757 ft 513 kts 110°
2026-05-05 06:14 40.14475 -108.29561 34765 ft 515 kts 110°
2026-05-05 06:14 40.12599 -108.20507 34774 ft 517 kts 110°
2026-05-05 06:15 40.10712 -108.11437 34770 ft 518 kts 111°
2026-05-05 06:15 40.08812 -108.02355 34787 ft 520 kts 111°
2026-05-05 06:16 40.06715 -107.93348 34949 ft 513 kts 120°
2026-05-05 06:16 40.03303 -107.85370 34951 ft 500 kts 131°
2026-05-05 06:17 39.99568 -107.77703 34824 ft 501 kts 131°
2026-05-05 06:17 39.95835 -107.70035 34823 ft 502 kts 132°
2026-05-05 06:18 39.92083 -107.62332 34831 ft 504 kts 132°
2026-05-05 06:18 39.88295 -107.54566 34852 ft 504 kts 131°
2026-05-05 06:19 39.84519 -107.46846 34865 ft 506 kts 131°
2026-05-05 06:19 39.80726 -107.39138 34856 ft 506 kts 132°
2026-05-05 06:20 39.76923 -107.31420 34900 ft 508 kts 133°
2026-05-05 06:20 39.73108 -107.23681 34942 ft 509 kts 133°
2026-05-05 06:21 39.69276 -107.15936 34995 ft 510 kts 133°
2026-05-05 06:21 39.65435 -107.08187 35033 ft 510 kts 133°
2026-05-05 06:22 39.61582 -107.00458 35035 ft 511 kts 133°
2026-05-05 06:22 39.59648 -106.96583 34596 ft 513 kts 133°
2026-05-05 06:22 39.57673 -106.92647 33288 ft 529 kts 132°
2026-05-05 06:23 39.55663 -106.88633 32573 ft 529 kts 131°
2026-05-05 06:23 39.53678 -106.84645 31783 ft 528 kts 130°
2026-05-05 06:23 39.51701 -106.80667 31244 ft 523 kts 130°
2026-05-05 06:23 39.49741 -106.76732 30836 ft 515 kts 130°
2026-05-05 06:24 39.47813 -106.72871 30146 ft 507 kts 130°
2026-05-05 06:24 39.45911 -106.69076 29228 ft 496 kts 129°
2026-05-05 06:24 39.44067 -106.65402 28665 ft 475 kts 129°
2026-05-05 06:24 39.42305 -106.61900 28108 ft 455 kts 129°
2026-05-05 06:25 39.40605 -106.58530 27576 ft 440 kts 129°
2026-05-05 06:25 39.38945 -106.55248 27056 ft 433 kts 129°
2026-05-05 06:25 39.37306 -106.52016 26647 ft 426 kts 128°
2026-05-05 06:25 39.35723 -106.48808 26187 ft 422 kts 118°
2026-05-05 06:26 39.34470 -106.45345 25845 ft 419 kts 114°
2026-05-05 06:26 39.33441 -106.41824 25780 ft 429 kts 114°
2026-05-05 06:26 39.32368 -106.38210 25692 ft 433 kts 114°
2026-05-05 06:26 39.31266 -106.34533 25627 ft 433 kts 114°
2026-05-05 06:27 39.30175 -106.30905 25521 ft 434 kts 115°
2026-05-05 06:27 39.27997 -106.23636 25335 ft 433 kts 114°
2026-05-05 06:27 39.26918 -106.20016 25232 ft 432 kts 114°
2026-05-05 06:28 39.25971 -106.16339 25119 ft 432 kts 105°
2026-05-05 06:28 39.25525 -106.12508 25005 ft 434 kts 94°
2026-05-05 06:28 39.25611 -106.08608 24775 ft 434 kts 83°
2026-05-05 06:28 39.26183 -106.04812 24496 ft 430 kts 77°
2026-05-05 06:29 39.26834 -106.01058 24227 ft 427 kts 77°
2026-05-05 06:29 39.27470 -105.97332 23950 ft 424 kts 77°
2026-05-05 06:29 39.28093 -105.93631 23643 ft 421 kts 78°
2026-05-05 06:29 39.28707 -105.89952 23372 ft 417 kts 78°
2026-05-05 06:30 39.29316 -105.86300 23132 ft 415 kts 78°
2026-05-05 06:30 39.29719 -105.83886 22970 ft 414 kts 78°
2026-05-05 06:30 39.30322 -105.80280 22732 ft 412 kts 77°
2026-05-05 06:30 39.30925 -105.76657 22483 ft 411 kts 78°
2026-05-05 06:31 39.31529 -105.73004 22243 ft 409 kts 78°
2026-05-05 06:31 39.32118 -105.69470 22013 ft 407 kts 76°
2026-05-05 06:31 39.32993 -105.65967 21714 ft 405 kts 66°
2026-05-05 06:31 39.34182 -105.62664 21198 ft 403 kts 63°
2026-05-05 06:32 39.35382 -105.59402 20740 ft 401 kts 63°
2026-05-05 06:32 39.36573 -105.56162 20279 ft 398 kts 63°
2026-05-05 06:32 39.37753 -105.52940 19834 ft 395 kts 63°
2026-05-05 06:32 39.38919 -105.49742 19409 ft 392 kts 63°
2026-05-05 06:33 39.40072 -105.46565 19074 ft 386 kts 63°
2026-05-05 06:33 39.41104 -105.43412 18942 ft 376 kts 71°
2026-05-05 06:33 39.41639 -105.40163 18788 ft 366 kts 84°
2026-05-05 06:33 39.41723 -105.36888 18440 ft 363 kts 89°
2026-05-05 06:34 39.41739 -105.33640 18049 ft 361 kts 89°
2026-05-05 06:34 39.41753 -105.30402 17616 ft 359 kts 89°
2026-05-05 06:34 39.41766 -105.27188 17207 ft 357 kts 90°
2026-05-05 06:34 39.41780 -105.24006 16482 ft 352 kts 90°
2026-05-05 06:35 39.41795 -105.20862 15741 ft 347 kts 90°
2026-05-05 06:35 39.41812 -105.17781 15310 ft 341 kts 86°
2026-05-05 06:35 39.41838 -105.14716 14883 ft 342 kts 90°
2026-05-05 06:35 39.41853 -105.11642 14498 ft 341 kts 90°
2026-05-05 06:36 39.41863 -105.08589 13996 ft 339 kts 90°
2026-05-05 06:36 39.41873 -105.05559 13522 ft 335 kts 90°
2026-05-05 06:36 39.41881 -105.02583 13190 ft 324 kts 90°
2026-05-05 06:36 39.41889 -104.99752 13200 ft 307 kts 90°
2026-05-05 06:37 39.41897 -104.97024 13090 ft 302 kts 90°
2026-05-05 06:37 39.41918 -104.94323 12968 ft 299 kts 85°
2026-05-05 06:37 39.42135 -104.91645 12708 ft 297 kts 84°
2026-05-05 06:37 39.42363 -104.89025 12390 ft 291 kts 84°
2026-05-05 06:38 39.42590 -104.86456 12101 ft 285 kts 84°
2026-05-05 06:38 39.42815 -104.83928 11830 ft 281 kts 84°
2026-05-05 06:38 39.43041 -104.81400 11558 ft 278 kts 84°
2026-05-05 06:38 39.43261 -104.78938 11282 ft 274 kts 84°
2026-05-05 06:39 39.43512 -104.76503 11015 ft 271 kts 78°
2026-05-05 06:39 39.44129 -104.74219 10833 ft 269 kts 68°
2026-05-05 06:39 39.44844 -104.71992 10687 ft 267 kts 66°
2026-05-05 06:39 39.45882 -104.70016 10533 ft 267 kts 45°
2026-05-05 06:40 39.47349 -104.68654 10382 ft 266 kts 25°
2026-05-05 06:40 39.49108 -104.67923 10237 ft 266 kts 14°
2026-05-05 06:40 39.50894 -104.67313 10088 ft 265 kts
2026-05-05 06:40 39.52671 -104.66710 9929 ft 263 kts 15°
2026-05-05 06:41 39.54483 -104.66398 9778 ft 264 kts
2026-05-05 06:41 39.56322 -104.66373 9623 ft 265 kts
2026-05-05 06:41 39.58157 -104.66349 9463 ft 263 kts
2026-05-05 06:41 39.59957 -104.66328 9323 ft 250 kts
2026-05-05 06:42 39.61601 -104.66308 9186 ft 224 kts
2026-05-05 06:42 39.63094 -104.66293 8988 ft 207 kts
2026-05-05 06:42 39.64505 -104.66286 8738 ft 199 kts
2026-05-05 06:42 39.65857 -104.66264 8637 ft 187 kts
2026-05-05 06:43 39.67138 -104.66244 8511 ft 182 kts
2026-05-05 06:43 39.68387 -104.66228 8306 ft 178 kts
2026-05-05 06:43 39.69618 -104.66213 8081 ft 176 kts
2026-05-05 06:43 39.70837 -104.66198 7855 ft 174 kts
2026-05-05 06:44 39.72045 -104.66184 7628 ft 172 kts
2026-05-05 06:44 39.73243 -104.66170 7405 ft 172 kts
2026-05-05 06:44 39.74432 -104.66156 7183 ft 170 kts
2026-05-05 06:44 39.75606 -104.66142 6966 ft 168 kts
2026-05-05 06:45 39.76768 -104.66128 6761 ft 166 kts
2026-05-05 06:45 39.77919 -104.66114 6552 ft 164 kts
2026-05-05 06:45 39.79060 -104.66100 6319 ft 164 kts
2026-05-05 06:45 39.80212 -104.66087 6064 ft 164 kts
2026-05-05 06:46 39.81346 -104.66073 5814 ft 164 kts
2026-05-05 06:46 39.82485 -104.66059 5568 ft 163 kts
2026-05-05 06:46 39.83556 -104.66045 5432 ft 153 kts
2026-05-05 06:46 39.84359 -104.66032 5414 ft 72 kts
2026-05-05 06:47 39.84653 -104.66043 5407 ft 16 kts 352°
2026-05-05 06:47 39.84805 -104.66088 5406 ft 29 kts 340°
2026-05-05 06:47 39.84966 -104.66198 5404 ft 26 kts 330°
2026-05-05 06:47 39.85138 -104.66240 5392 ft 21 kts 356°
2026-05-05 06:48 39.85284 -104.66238 5387 ft 20 kts 360°
2026-05-05 06:48 39.85420 -104.66238 5397 ft 19 kts 360°
2026-05-05 06:48 39.85544 -104.66241 5391 ft 17 kts 350°
2026-05-05 06:48 39.85585 -104.66367 5389 ft 18 kts 270°
2026-05-05 06:49 39.85584 -104.66531 5383 ft 17 kts 259°
2026-05-05 06:49 39.85526 -104.66620 5384 ft 11 kts 255°
2026-05-05 06:49 39.85523 -104.66713 5383 ft 9 kts 271°
2026-05-05 06:49 39.85524 -104.66817 5383 ft 14 kts 270°
2026-05-05 06:50 39.85525 -104.66933 5383 ft 12 kts 270°
2026-05-05 06:50 39.85526 -104.67027 5383 ft 9 kts 270°
2026-05-05 06:50 39.85506 -104.67067 5383 ft 4 kts 186°
2026-05-05 06:50 39.85486 -104.67068 5383 ft 3 kts 181°
2026-05-05 06:51 39.85470 -104.67068 5383 ft 2 kts 180°
2026-05-05 06:51 39.85461 -104.67068 5383 ft 1 kts 180°
2026-05-05 06:51 39.85450 -104.67068 5383 ft 1 kts 180°
2026-05-05 06:51 39.85449 -104.67068 5383 ft 0 kts 180°